Location: Lango�lan
(48.1202°N, 3.2340°W)
Time: 14:25:43
(UTC+00:00)

Cosmos 44 Rocket - Pass Details

Date: 23 October 2019
Orbit: 657 x 733 km, 65.1° (Epoch: 16 November)

Event Time Altitude Azimuth Distance (km) Brightness Sun altitude
Exits shadow 04:42:08 49° 293° (WNW) 857 3.4 -20.9°
Maximum altitude 04:43:12 65° 237° (WSW) 728 3.1 -20.7°
Drops below altitude 10° 04:47:49 10° 156° (SSE) 2,065 6.0 -20.0°
Sets 04:50:07 0° 153° (SSE) 2,973 6.8 -19.6°
